Regional Weather Roundup
Issued by NWS

Home | Current Version | Previous Version | Graphics & Text | Print | Product List | Glossary On
Versions: 1 2 3 4 5 6 7 8 9 10 11 12 13 14 15 16 17 18 19 20 21 22 23 24 25 26 27 28 29 30 31 32 33 34 35 36 37 38 39 40 41 42 43 44 45 46 47 48 49 50
000
ASUS43 KLMK 311010
RWRKY
KENTUCKY REGIONAL WEATHER ROUNDUP
NATIONAL WEATHER SERVICE LOUISVILLE KY
600 AM EDT SUN AUG 31 2014

NOTE "FAIR" INDICATES FEW OR NO CLOUDS BELOW 12,000 FEET
WITH NO SIGNIFICANT WEATHER AND/OR OBSTRUCTIONS TO VISIBILITY.

KYZ001>023-026-027-061>063-070>075-311100-
WESTERN AND SOUTH CENTRAL KENTUCKY

CITY           SKY/WX    TMP DP  RH WIND       PRES   REMARKS
PADUCAH        CLOUDY    74  70  87 S5        29.99R
HENDERSON      CLOUDY    72  70  94 S3        30.00R
OWENSBORO      NOT AVBL
HOPKINSVILLE   LGT RAIN  72  72 100 S7        30.03R FOG
BOWLING GREEN  LGT RAIN  72  70  93 S6        30.05S
GLASGOW        LGT RAIN  71  71 100 S5        30.07R
$$

KYZ024-025-028>034-038-045-046-053-311100-
NORTH CENTRAL KENTUCKY

CITY           SKY/WX    TMP DP  RH WIND       PRES   REMARKS
LOUISVILLE/SDF CLOUDY    74  71  91 S6        30.03R
LOUISVILLE/LOU CLOUDY    72  71  97 S6        30.04R
FORT KNOX      CLOUDY    72  72 100 S6        30.04R
$$

KYZ035>037-039>044-047>052-055>060-089>105-311100-
NORTHEAST KENTUCKY

CITY           SKY/WX    TMP DP  RH WIND       PRES   REMARKS
LEXINGTON      CLOUDY    72  69  90 S8        30.07R
COVINGTON      LGT RAIN  72  70  93 S9        30.03R FOG
FRANKFORT      LGT RAIN  71  70  96 S7        30.05R
$$

KYZ054-064>069-076>088-106>120-311100-
SOUTHEAST KENTUCKY

CITY           SKY/WX    TMP DP  RH WIND       PRES   REMARKS
JACKSON        CLOUDY    69  67  93 VRB3      30.11R
LONDON         CLOUDY    70  67  90 S6        30.12S
SOMERSET       CLOUDY    68  68 100 SE3       30.11S
MIDDLESBORO    CLOUDY    71  69  93 CALM      30.15R
MONTICELLO     PTSUNNY   70  68  93 CALM      30.12R
$$



USA.gov is the U.S. government's official web portal to all federal, state and local government web resources and services.